Cienfuegos, Cuba

3:08 AM CST on December 16, 2019 (GMT -0500)
Jaime Gonzalez

Weather History for MUCF - October, 2019

Change the Weather History Date:

Friday, October 18, 2019

  Actual Average (WUND) Record (WUND)
Temperature  
Mean Temperature 81 °F -  
Max Temperature 89 °F - - (-1)
Min Temperature 73 °F - - (-1)
Cooling Degree Days 16    
Growing Degree Days 31 (Base 50)    
Moisture  
Dew Point 76 °F    
Average Humidity 88    
Maximum Humidity 100    
Minimum Humidity 62    
Precipitation  
Precipitation 0.00 in - - ()
Sea Level Pressure  
Sea Level Pressure 29.92 in    
Wind  
Wind Speed 4 mph ()    
Max Wind Speed 12 mph    
Max Gust Speed -    
Visibility 5.7 miles    
Events      
Averages and records for this station are not official NWS values.
T = Trace of Precipitation, MM = Missing Value Source: Averaged Metar Reports

Daily Weather History Graph

Daily Weather History Graph

Search for Another Location

Airport or City:

Astronomy

Oct. 18, 2019 Rise Set
Actual Time 7:18 AM CDT 6:54 PM CDT
Civil Twilight 6:56 AM CDT 7:16 PM CDT
Nautical Twilight 6:30 AM CDT 7:42 PM CDT
Astronomical Twilight 6:04 AM CDT 8:08 PM CDT
Moon 10:36 PM CDT (10/18) 11:25 AM CDT (10/18)
Length of Visible Light 12h 20m
Length of Day
11h 35m
Waning Gibbous, 79% of the Moon is Illuminated
Oct 18
Waning Gibbous
Oct 21
Last Quarter
Oct 27
New
Nov 4
First Quarter
Nov 12
Full

Hourly Weather History & Observations

Time (CDT) Temp. Heat Index Dew Point Humidity Pressure Visibility Wind Dir Wind Speed Gust Speed Precip Events Conditions
12:58 AM 75.2 °F - 75.2 °F 100% 29.95 in - Variable 2.3 mph - N/A   Unknown
1:58 AM 75.2 °F - 75.2 °F 100% 29.92 in - East 4.6 mph - N/A   Unknown
2:58 AM 75.2 °F - 73.4 °F 94% 29.92 in - East 3.5 mph - N/A   Unknown
3:58 AM 75.2 °F - 73.4 °F 94% 29.92 in - ENE 3.5 mph - N/A   Unknown
4:59 AM 73.4 °F - 73.4 °F 100% 29.92 in - ESE 4.6 mph - N/A   Unknown
5:59 AM 73.4 °F - 73.4 °F 100% 29.92 in - ESE 3.5 mph - N/A   Unknown
6:59 AM 73.4 °F - 73.4 °F 100% 29.92 in - ESE 3.5 mph - N/A   Unknown
7:59 AM 73.4 °F - 73.4 °F 100% 29.92 in - East 3.5 mph - N/A   Unknown
8:51 AM 78.8 °F - 77.0 °F 94% 29.95 in 5.6 mi Variable 1.2 mph - N/A   Partly Cloudy
10:50 AM 86.0 °F 96.9 °F 77.0 °F 74% 29.95 in 5.6 mi South 5.8 mph - N/A   Scattered Clouds
11:53 AM 87.8 °F 99.7 °F 77.0 °F 70% 29.95 in 5.6 mi SW 6.9 mph - N/A   Scattered Clouds
12:56 PM 89.6 °F 99.8 °F 75.2 °F 62% 29.92 in 6.2 mi SW 10.4 mph - N/A   Scattered Clouds
2:50 PM 86.0 °F 96.9 °F 77.0 °F 74% 29.89 in 5.6 mi SSW 11.5 mph - N/A   Mostly Cloudy
3:50 PM 86.0 °F 96.9 °F 77.0 °F 74% 29.89 in 5.6 mi SSW 9.2 mph - N/A   Mostly Cloudy
4:59 PM 87.8 °F 99.7 °F 77.0 °F 70% 29.89 in - SSW 9.2 mph - N/A   Unknown
5:58 PM 84.2 °F 94.1 °F 77.0 °F 79% 29.89 in - SSW 9.2 mph - N/A   Unknown
6:59 PM 82.4 °F 90.9 °F 77.0 °F 84% 29.89 in - SSW 5.8 mph - N/A   Unknown
7:59 PM 80.6 °F 87.1 °F 77.0 °F 89% 29.89 in - South 4.6 mph - N/A   Unknown
8:59 PM 78.8 °F - 77.0 °F 94% 29.92 in - South 4.6 mph - N/A   Unknown
9:59 PM 78.8 °F - 75.2 °F 89% 29.92 in - South 4.6 mph - N/A   Unknown
10:58 PM 78.8 °F - 75.2 °F 89% 29.92 in - South 3.5 mph - N/A   Unknown
11:59 PM 75.2 °F - 75.2 °F 100% 29.92 in - East 3.5 mph - N/A   Unknown